Regional Weather Roundup
Issued by NWS Sioux Falls, SD

Home | Current Version | Previous Version | Text Only | Print | Product List | Glossary On
Versions: 1 2 3 4 5 6 7 8 9 10 11 12 13 14 15 16 17 18 19 20 21 22 23 24 25 26 27 28 29 30 31 32 33 34 35 36 37 38 39 40 41 42 43 44 45 46 47 48 49 50
000
ASUS43 KFSD 021010
RWRFSD

WEATHER ROUNDUP FOR SE SOUTH DAKOTA/SW MINNESOTA/NW IOWA
NATIONAL WEATHER SERVICE SIOUX FALLS SD
500 AM CDT SUN AUG 02 2015

NOTE: "FAIR" INDICATES FEW OR NO CLOUDS BELOW 12,000 FEET WITH NO
SIGNIFICANT WEATHER AND OR OBSTRUCTIONS TO VISIBILITY.


SDZ038>040-050-052>070-021100-
SOUTHEAST SOUTH DAKOTA

CITY           SKY/WX    TMP DP  RH WIND       PRES   REMARKS
BROOKINGS      CLEAR     63  57  82 S6        29.78S
CHAMBERLAIN    CLEAR     64  60  86 W5        29.79S
HURON            N/A     65  60  84 E3        29.73R
MADISON        FAIR      66  63  88 SW12      29.77F
MITCHELL       CLEAR     64  60  87 SW5       29.76S
SIOUX FALLS    CLEAR     68  60  75 SW6       29.76F
WINNER         FAIR      70  57  63 SW9       29.80F
YANKTON        CLEAR     72  64  78 SW8       29.76F
$$

MNZ071-072-080-081-089-090-097-098-021100-
SOUTHWEST MINNESOTA

CITY           SKY/WX    TMP DP  RH WIND       PRES   REMARKS
FAIRMONT       CLEAR     70  61  73 SW9       29.75F
JACKSON        CLEAR     68  63  83 S15       29.74F
LUVERNE        CLEAR     64  61  88 CALM      29.78S
MARSHALL       CLEAR     70  59  68 W14G20    29.71F
MONTEVIDEO     PTCLDY    66  63  88 W6        29.69F
PIPESTONE      CLEAR     64  61  88 SW8       29.77F
REDWOOD FALLS  CLEAR     69  63  81 SW13      29.69R
TRACY          CLEAR     70  63  78 SW16G22   29.72R
WINDOM         CLEAR     68  63  83 SW9       29.73F
WORTHINGTON    CLEAR     70  61  73 SW13      29.76S
$$

IAZ001>003-012>014-020>022-031-032-NEZ013-014-SDZ071-021100-
NORTHWEST IOWA

CITY           SKY/WX    TMP DP  RH WIND       PRES   REMARKS
CHEROKEE       PTCLDY    68  68 100 S6        29.80F
DENISON        CLOUDY    70  66  88 VRB7G14   29.83S
ESTHERVILLE    CLEAR     69  66  90 SW9       29.77F
LE MARS        PTCLDY    68  66  94 S8        29.79F
ORANGE CITY    CLEAR     64  63  94 S8        29.79S
SHELDON        CLEAR     66  64  94 S8        29.77F
SIOUX CITY     CLEAR     68  64  87 SE8       29.80F
SPENCER        CLEAR     71  67  87 SW10      29.78F
STORM LAKE     PTCLDY    70  70 100 SW10      29.82F
$$

ABBREVIATIONS USED IN REMARKS
   TC - TEMPERATURE IN CELSIUS
  WCI - WIND CHILL INDEX
   HX - HEAT INDEX
  VSB - VISIBILITY



USA.gov is the U.S. government's official web portal to all federal, state and local government web resources and services.